Weather History for Waterville, ME

Change the Weather History Date:

Friday, November 15, 2013

  Actual Average Record
Temperature  
Mean Temperature 37 °F -  
Max Temperature 48 °F 45 °F 62 °F (1973)
Min Temperature 26 °F 27 °F 10 °F (1986)
Degree Days  
Heating Degree Days 28    
Moisture  
Dew Point 25 °F    
Average Humidity 66    
Maximum Humidity 93    
Minimum Humidity 34    
Precipitation  
Precipitation 0.00 in - - ()
Sea Level Pressure  
Sea Level Pressure 30.08 in    
Wind  
Wind Speed 3 mph (SSW)    
Max Wind Speed 7 mph    
Max Gust Speed -    
Visibility 10 miles    
Events      
Averages and records for this station are not official NWS values.
T = Trace of Precipitation, MM = Missing Value Source: NWS Daily Summary

Daily Weather History Graph

Daily Weather History Graph

Search for Another Location

Airport:

Trip Planner

Search our weather history database for the weather conditions in past years. The results will help you decide how hot, cold, wet, or windy it might be!

Date:

Astronomy

Nov. 15, 2013 Rise Set
Actual Time 6:35 AM EST 4:10 PM EST
Civil Twilight 6:03 AM EST 4:42 PM EST
Nautical Twilight 5:28 AM EST 5:17 PM EST
Astronomical Twilight 4:54 AM EST 5:52 PM EST
Moon 3:09 PM EST (11/15) 4:24 AM EST (11/15)
Length of Visible Light 10h 38m
Length of Day
9h 35m
Waxing Gibbous, 96% of the Moon is Illuminated
Nov 15
Waxing Gibbous
Nov 17
Full
Nov 25
Last Quarter
Dec 2
New
Dec 9
First Quarter

Hourly Weather History & Observations

Time (EST) Temp. Windchill Dew Point Humidity Pressure Visibility Wind Dir Wind Speed Gust Speed Precip Events Conditions
12:15 AM 30.2 °F - 23.0 °F 75% 30.04 in 10.0 mi Calm Calm - N/A   Clear
12:35 AM 30.2 °F 26.7 °F 24.8 °F 80% 30.04 in 10.0 mi SW 3.5 mph - N/A   Clear
12:55 AM 30.2 °F 26.7 °F 24.8 °F 80% 30.04 in 10.0 mi SSW 3.5 mph - N/A   Clear
1:15 AM 28.4 °F - 21.2 °F 74% 30.05 in 10.0 mi Calm Calm - N/A   Clear
1:35 AM 30.2 °F 26.7 °F 24.8 °F 80% 30.05 in 10.0 mi SSW 3.5 mph - N/A   Clear
1:55 AM 28.4 °F 24.6 °F 24.8 °F 86% 30.05 in 10.0 mi SSW 3.5 mph - N/A   Clear
2:15 AM 28.4 °F - 23.0 °F 80% 30.05 in 10.0 mi Calm Calm - N/A   Clear
2:35 AM 28.4 °F 24.6 °F 23.0 °F 80% 30.06 in 10.0 mi SSW 3.5 mph - N/A   Clear
2:55 AM 28.4 °F 23.3 °F 24.8 °F 86% 30.05 in 10.0 mi SSW 4.6 mph - N/A   Scattered Clouds
3:15 AM 28.4 °F - 24.8 °F 86% 30.03 in 10.0 mi Calm Calm - N/A   Mostly Cloudy
3:35 AM 28.4 °F 23.3 °F 23.0 °F 80% 30.04 in 10.0 mi SW 4.6 mph - N/A   Partly Cloudy
3:55 AM 26.6 °F 21.2 °F 24.8 °F 93% 30.05 in 10.0 mi SW 4.6 mph - N/A   Clear
4:15 AM 28.4 °F 23.3 °F 24.8 °F 86% 30.06 in 10.0 mi SW 4.6 mph - N/A   Clear
4:35 AM 28.4 °F 23.3 °F 24.8 °F 86% 30.05 in 10.0 mi SSW 4.6 mph - N/A   Clear
4:55 AM 28.4 °F - 24.8 °F 86% 30.05 in 10.0 mi Calm Calm - N/A   Clear
5:15 AM 26.6 °F 22.6 °F 24.8 °F 93% 30.06 in 10.0 mi SW 3.5 mph - N/A   Clear
5:35 AM 28.4 °F 23.3 °F 24.8 °F 86% 30.06 in 10.0 mi SSW 4.6 mph - N/A   Clear
5:55 AM 26.6 °F 21.2 °F 24.8 °F 93% 30.07 in 10.0 mi SW 4.6 mph - N/A   Clear
6:15 AM 28.4 °F 24.6 °F 24.8 °F 86% 30.07 in 10.0 mi SW 3.5 mph - N/A   Clear
6:35 AM 28.4 °F - 24.8 °F 86% 30.07 in 10.0 mi Calm Calm - N/A   Clear
6:55 AM 26.6 °F - 23.0 °F 86% 30.07 in 10.0 mi Calm Calm - N/A   Clear
7:15 AM 28.4 °F 23.3 °F 24.8 °F 86% 30.08 in 10.0 mi SSW 4.6 mph - N/A   Clear
7:35 AM 28.4 °F 23.3 °F 24.8 °F 86% 30.08 in 10.0 mi SW 4.6 mph - N/A   Clear
7:55 AM 30.2 °F 26.7 °F 26.6 °F 86% 30.09 in 10.0 mi SSW 3.5 mph - N/A   Clear
8:15 AM 30.2 °F 24.3 °F 26.6 °F 86% 30.09 in 10.0 mi SSW 5.8 mph - N/A   Clear
8:35 AM 33.8 °F 28.6 °F 26.6 °F 75% 30.10 in 10.0 mi SSW 5.8 mph - N/A   Clear
8:55 AM 33.8 °F 30.8 °F 28.4 °F 81% 30.10 in 10.0 mi SSW 3.5 mph - N/A   Clear
9:15 AM 35.6 °F 32.8 °F 28.4 °F 75% 30.10 in 10.0 mi SW 3.5 mph - N/A   Clear
9:35 AM 35.6 °F - 28.4 °F 75% 30.09 in 10.0 mi Calm Calm - N/A   Clear
9:55 AM 39.2 °F 37.0 °F 28.4 °F 65% 30.10 in 10.0 mi SSW 3.5 mph - N/A   Clear
10:15 AM 39.2 °F - 30.2 °F 70% 30.10 in 10.0 mi Calm Calm - N/A   Clear
10:35 AM 41.0 °F 39.0 °F 30.2 °F 65% 30.09 in 10.0 mi SSW 3.5 mph - N/A   Clear
10:55 AM 42.8 °F 41.1 °F 28.4 °F 57% 30.08 in 10.0 mi South 3.5 mph - N/A   Clear
11:15 AM 42.8 °F 40.1 °F 28.4 °F 57% 30.08 in 10.0 mi SSW 4.6 mph - N/A   Clear
11:35 AM 44.6 °F 42.2 °F 28.4 °F 53% 30.08 in 10.0 mi SSE 4.6 mph - N/A   Clear
11:55 AM 44.6 °F 42.2 °F 28.4 °F 53% 30.07 in 10.0 mi South 4.6 mph - N/A   Clear
12:15 PM 44.6 °F 42.2 °F 28.4 °F 53% 30.07 in 10.0 mi South 4.6 mph - N/A   Clear
12:35 PM 44.6 °F 41.4 °F 26.6 °F 49% 30.06 in 10.0 mi South 5.8 mph - N/A   Clear
12:55 PM 44.6 °F 42.2 °F 26.6 °F 49% 30.07 in 10.0 mi South 4.6 mph - N/A   Clear
1:15 PM 46.4 °F 43.5 °F 26.6 °F 46% 30.06 in 10.0 mi South 5.8 mph - N/A   Clear
1:35 PM 46.4 °F 43.5 °F 26.6 °F 46% 30.06 in 10.0 mi South 5.8 mph - N/A   Clear
1:55 PM 46.4 °F 44.3 °F 26.6 °F 46% 30.05 in 10.0 mi SSW 4.6 mph - N/A   Clear
2:15 PM 46.4 °F 42.9 °F 24.8 °F 43% 30.05 in 10.0 mi SSW 6.9 mph - N/A   Clear
2:35 PM 46.4 °F 42.9 °F 23.0 °F 40% 30.06 in 10.0 mi SW 6.9 mph - N/A   Clear
2:55 PM 48.2 °F - 21.2 °F 34% 30.06 in 10.0 mi SSW 4.6 mph - N/A   Clear
3:15 PM 46.4 °F 44.3 °F 23.0 °F 40% 30.06 in 10.0 mi SSW 4.6 mph - N/A   Clear
3:35 PM 46.4 °F 45.2 °F 21.2 °F 37% 30.06 in 10.0 mi SSW 3.5 mph - N/A   Clear
3:55 PM 44.6 °F - 21.2 °F 39% 30.07 in 10.0 mi Calm Calm - N/A   Clear
4:15 PM 42.8 °F - 21.2 °F 42% 30.07 in 10.0 mi Calm Calm - N/A   Clear
4:35 PM 41.0 °F - 21.2 °F 45% 30.07 in 10.0 mi Calm Calm - N/A   Clear
4:55 PM 42.8 °F 40.1 °F 21.2 °F 42% 30.09 in 10.0 mi SSW 4.6 mph - N/A   Clear
5:15 PM 41.0 °F - 21.2 °F 45% 30.09 in 10.0 mi Calm Calm - N/A   Clear
5:35 PM 41.0 °F - 21.2 °F 45% 30.09 in 10.0 mi Calm Calm - N/A   Clear
5:55 PM 39.2 °F - 21.2 °F 49% 30.10 in 10.0 mi Calm Calm - N/A   Clear
6:15 PM 39.2 °F - 24.8 °F 56% 30.10 in 10.0 mi Calm Calm - N/A   Clear
6:35 PM 39.2 °F - 23.0 °F 52% 30.10 in 10.0 mi Calm Calm - N/A   Clear
6:55 PM 39.2 °F - 23.0 °F 52% 30.10 in 10.0 mi Calm Calm - N/A   Clear
7:15 PM 37.4 °F - 23.0 °F 56% 30.10 in 10.0 mi Calm Calm - N/A   Clear
7:35 PM 37.4 °F - 21.2 °F 52% 30.10 in 10.0 mi Calm Calm - N/A   Clear
7:55 PM 37.4 °F - 24.8 °F 60% 30.11 in 10.0 mi Calm Calm - N/A   Clear
8:15 PM 35.6 °F - 24.8 °F 65% 30.11 in 10.0 mi Calm Calm - N/A   Clear
8:35 PM 35.6 °F - 23.0 °F 60% 30.11 in 10.0 mi Calm Calm - N/A   Clear
8:55 PM 35.6 °F - 23.0 °F 60% 30.12 in 10.0 mi Calm Calm - N/A   Clear
9:15 PM 33.8 °F 30.8 °F 21.2 °F 60% 30.12 in 10.0 mi NNE 3.5 mph - N/A   Clear
9:35 PM 33.8 °F - 24.8 °F 70% 30.13 in 10.0 mi Calm Calm - N/A   Clear
9:55 PM 32.0 °F - 23.0 °F 69% 30.13 in 10.0 mi Calm Calm - N/A   Clear
10:15 PM 30.2 °F 25.4 °F 21.2 °F 69% 30.12 in 10.0 mi North 4.6 mph - N/A   Clear
10:35 PM 32.0 °F - 24.8 °F 75% 30.12 in 10.0 mi Calm Calm - N/A   Clear
10:55 PM 30.2 °F - 24.8 °F 80% 30.13 in 10.0 mi Calm Calm - N/A   Clear
11:15 PM 28.4 °F 24.6 °F 21.2 °F 74% 30.14 in 10.0 mi NNW 3.5 mph - N/A   Clear
11:35 PM 28.4 °F 24.6 °F 23.0 °F 80% 30.15 in 10.0 mi NE 3.5 mph - N/A   Clear
11:55 PM 33.8 °F 29.6 °F 24.8 °F 70% 30.15 in 10.0 mi North 4.6 mph - N/A   Clear